Powrót do katalogu

DMSP 5D-2 F13 DEB

AktywnyPO
NORAD 40480·DEBRIS·🇺🇸 United States

Wystrzelony Mar 24, 1995 z Vandenberg Space Force Base

Loading…

Następne Przeloty (najbliższe 24 godziny)

TLE

Starzejące sięSource: Space-Track

Epoka: Sep 10, 2026, 09:43 UTC

1 40480U 95015BY  26253.40547300  .00014423  00000-0  28988-2 0  9998
2 40480  98.7174 216.3442 0038853  87.5680 272.9967 14.61247015593311

Śledź DMSP 5D-2 F13 DEB w czasie rzeczywistym z AllMySat

Download on the App Store